| time (UTC) | temp F | wind direction | speed MPH | gust MPH | rain 1hr in | rain 24hr in | rain mn in | humidity % | barometer mb |
| 20260507033021 | 75 | 179 | 3.0 | 5.0 | 0.00 | 0.01 | 0.01 | 96 | 1013.7 |
| 20260507032021 | 75 | 184 | 3.0 | 6.0 | 0.00 | 0.01 | 0.01 | 96 | 1013.7 |
| 20260507031027 | 75 | 171 | 2.0 | 4.0 | 0.00 | 0.01 | 0.01 | 96 | 1013.7 |
| 20260507030021 | 75 | 177 | 3.0 | 5.0 | 0.00 | 0.01 | 0.01 | 96 | 1013.7 |
| 20260507025048 | 75 | 176 | 3.0 | 5.0 | 0.00 | 0.01 | 0.01 | 96 | 1013.6 |
| 20260507024027 | 75 | 187 | 3.0 | 4.0 | 0.00 | 0.01 | 0.01 | 96 | 1013.7 |
| 20260507023022 | 75 | 187 | 2.0 | 6.0 | 0.00 | 0.01 | 0.01 | 96 | 1013.9 |
| 20260507022028 | 75 | 169 | 2.0 | 4.0 | 0.00 | 0.01 | 0.01 | 96 | 1013.6 |
| 20260507021028 | 75 | 181 | 3.0 | 5.0 | 0.00 | 0.01 | 0.01 | 96 | 1013.4 |
| 20260507020028 | 75 | 183 | 2.0 | 5.0 | 0.00 | 0.01 | 0.01 | 96 | 1013.2 |
| 20260507015032 | 75 | 178 | 2.0 | 4.0 | 0.00 | 0.01 | 0.01 | 95 | 1013.0 |
| 20260507014025 | 75 | 182 | 3.0 | 6.0 | 0.00 | 0.01 | 0.01 | 95 | 1013.2 |
| 20260507013031 | 75 | 182 | 2.0 | 3.0 | 0.00 | 0.01 | 0.01 | 95 | 1013.3 |
| 20260507012032 | 75 | 184 | 2.0 | 4.0 | 0.00 | 0.01 | 0.01 | 95 | 1013.4 |
| 20260507010032 | 75 | 190 | 2.0 | 4.0 | 0.00 | 0.01 | 0.01 | 94 | 1013.0 |
| 20260507005029 | 75 | 184 | 1.0 | 3.0 | 0.00 | 0.01 | 0.01 | 94 | 1013.0 |
| 20260507004050 | 75 | 188 | 1.0 | 4.0 | 0.00 | 0.01 | 0.01 | 94 | 1013.4 |
| 20260507003030 | 75 | 182 | 3.0 | 6.0 | 0.00 | 0.01 | 0.01 | 94 | 1013.4 |
| 20260507002031 | 75 | 187 | 2.0 | 5.0 | 0.00 | 0.01 | 0.01 | 93 | 1013.0 |
| 20260507001018 | 76 | 178 | 3.0 | 6.0 | 0.00 | 0.01 | 0.01 | 93 | 1012.8 |
| 20260507000030 | 76 | 189 | 2.0 | 5.0 | 0.00 | 0.01 | 0.01 | 93 | 1012.9 |
| 20260506235018 | 76 | 196 | 3.0 | 5.0 | 0.00 | 0.01 | 0.01 | 93 | 1013.2 |
| 20260506234030 | 76 | 178 | 3.0 | 5.0 | 0.00 | 0.01 | 0.01 | 93 | 1013.0 |
| 20260506233018 | 76 | 172 | 3.0 | 6.0 | 0.00 | 0.01 | 0.01 | 93 | 1012.8 |
| 20260506232039 | 76 | 183 | 3.0 | 7.0 | 0.00 | 0.01 | 0.01 | 93 | 1012.9 |
| 20260506231018 | 76 | 180 | 3.0 | 6.0 | 0.00 | 0.01 | 0.01 | 93 | 1013.1 |
| 20260506230051 | 76 | 178 | 3.0 | 4.0 | 0.00 | 0.01 | 0.01 | 93 | 1013.4 |
| 20260506225019 | 76 | 173 | 3.0 | 7.0 | 0.00 | 0.01 | 0.01 | 92 | 1013.5 |
| 20260506224016 | 76 | 152 | 2.0 | 3.0 | 0.00 | 0.01 | 0.01 | 92 | 1013.7 |
| 20260506223016 | 76 | 156 | 2.0 | 4.0 | 0.00 | 0.01 | 0.01 | 92 | 1013.6 |
| 20260506222100 | 76 | 138 | 3.0 | 6.0 | 0.00 | 0.01 | 0.01 | 92 | 1013.7 |
| 20260506221020 | 77 | 160 | 3.0 | 7.0 | 0.00 | 0.01 | 0.01 | 91 | 1013.7 |
| 20260506220040 | 77 | 165 | 3.0 | 7.0 | 0.00 | 0.01 | 0.01 | 91 | 1013.7 |
| 20260506215020 | 77 | 148 | 3.0 | 6.0 | 0.00 | 0.01 | 0.01 | 90 | 1013.8 |
| 20260506214020 | 77 | 139 | 3.0 | 7.0 | 0.00 | 0.01 | 0.01 | 91 | 1013.8 |
| 20260506213020 | 77 | 171 | 2.0 | 6.0 | 0.00 | 0.01 | 0.01 | 91 | 1014.0 |
| 20260506212017 | 77 | 170 | 2.0 | 3.0 | 0.00 | 0.01 | 0.01 | 91 | 1014.1 |
| 20260506211017 | 77 | 146 | 1.0 | 3.0 | 0.00 | 0.01 | 0.01 | 91 | 1014.2 |
| 20260506210018 | 77 | 125 | 2.0 | 3.0 | 0.00 | 0.01 | 0.01 | 91 | 1014.3 |
| 20260506205033 | 78 | 196 | 2.0 | 3.0 | 0.00 | 0.01 | 0.01 | 90 | 1014.3 |
| 20260506204032 | 78 | 176 | 1.0 | 4.0 | 0.00 | 0.01 | 0.01 | 89 | 1014.3 |
| 20260506203018 | 78 | 163 | 2.0 | 5.0 | 0.00 | 0.01 | 0.01 | 89 | 1014.4 |
| 20260506202020 | 79 | 184 | 2.0 | 4.0 | 0.00 | 0.01 | 0.01 | 89 | 1014.4 |
| 20260506201018 | 79 | 140 | 1.0 | 5.0 | 0.00 | 0.01 | 0.01 | 89 | 1014.7 |
| 20260506200019 | 80 | 127 | 2.0 | 6.0 | 0.00 | 0.01 | 0.01 | 88 | 1014.8 |
| 20260506195019 | 80 | 161 | 2.0 | 5.0 | 0.00 | 0.01 | 0.01 | 86 | 1014.8 |
| 20260506194036 | 79 | 136 | 2.0 | 5.0 | 0.00 | 0.01 | 0.01 | 88 | 1014.8 |
| 20260506193016 | 77 | 154 | 2.0 | 5.0 | 0.00 | 0.01 | 0.01 | 91 | 1015.1 |
| 20260506192042 | 77 | 157 | 2.0 | 6.0 | 0.00 | 0.01 | 0.01 | 91 | 1015.3 |
| 20260506191019 | 77 | 145 | 1.0 | 3.0 | 0.00 | 0.01 | 0.01 | 91 | 1015.4 |
| 20260506190020 | 78 | 83 | 1.0 | 3.0 | 0.00 | 0.01 | 0.01 | 90 | 1015.6 |
| 20260506185020 | 78 | 195 | 1.0 | 4.0 | 0.00 | 0.01 | 0.01 | 89 | 1015.8 |
| 20260506184022 | 78 | 140 | 1.0 | 3.0 | 0.00 | 0.01 | 0.01 | 89 | 1015.9 |
| 20260506183020 | 78 | 121 | 2.0 | 4.0 | 0.00 | 0.01 | 0.01 | 90 | 1016.0 |
| 20260506182043 | 78 | 141 | 2.0 | 6.0 | 0.00 | 0.01 | 0.01 | 89 | 1016.1 |
| 20260506181020 | 78 | 159 | 2.0 | 4.0 | 0.00 | 0.01 | 0.01 | 89 | 1016.1 |
| 20260506180020 | 77 | 143 | 2.0 | 5.0 | 0.00 | 0.01 | 0.01 | 90 | 1016.1 |
| 20260506175018 | 77 | 149 | 2.0 | 4.0 | 0.00 | 0.01 | 0.01 | 90 | 1016.2 |
| 20260506174017 | 78 | 121 | 2.0 | 5.0 | 0.00 | 0.01 | 0.01 | 89 | 1016.2 |
| 20260506173018 | 78 | 138 | 2.0 | 6.0 | 0.00 | 0.01 | 0.01 | 89 | 1016.2 |
| 20260506172021 | 78 | 132 | 2.0 | 5.0 | 0.00 | 0.01 | 0.01 | 88 | 1016.3 |
| 20260506171018 | 77 | 119 | 1.0 | 6.0 | 0.00 | 0.01 | 0.01 | 90 | 1016.2 |
| 20260506170018 | 77 | 109 | 2.0 | 5.0 | 0.00 | 0.01 | 0.01 | 90 | 1016.3 |
| 20260506165022 | 77 | 138 | 2.0 | 4.0 | 0.00 | 0.01 | 0.01 | 89 | 1016.4 |
| 20260506164021 | 77 | 145 | 1.0 | 2.0 | 0.01 | 0.01 | 0.01 | 89 | 1016.3 |
| 20260506163022 | 77 | 137 | 1.0 | 4.0 | 0.01 | 0.02 | 0.01 | 89 | 1016.3 |
| 20260506162022 | 77 | 122 | 2.0 | 5.0 | 0.01 | 0.02 | 0.01 | 89 | 1016.3 |
| 20260506161025 | 77 | 133 | 1.0 | 4.0 | 0.01 | 0.02 | 0.01 | 89 | 1016.3 |
| 20260506160025 | 77 | 154 | 1.0 | 3.0 | 0.01 | 0.02 | 0.01 | 89 | 1016.2 |
| 20260506155045 | 77 | 176 | 1.0 | 2.0 | 0.01 | 0.02 | 0.01 | 90 | 1016.2 |
| 20260506154026 | 77 | 147 | 1.0 | 2.0 | 0.00 | 0.02 | 0.00 | 90 | 1016.1 |
| 20260506153026 | 76 | 144 | 1.0 | 3.0 | 0.00 | 0.02 | 0.00 | 91 | 1016.0 |
| 20260506152023 | 76 | 179 | 1.0 | 3.0 | 0.00 | 0.02 | 0.00 | 91 | 1016.0 |
| 20260506151023 | 76 | 188 | 1.0 | 2.0 | 0.00 | 0.02 | 0.00 | 91 | 1015.9 |
| 20260506150023 | 76 | 129 | 1.0 | 2.0 | 0.00 | 0.02 | 0.00 | 91 | 1015.9 |
| 20260506145026 | 76 | 169 | 0.0 | 2.0 | 0.00 | 0.02 | 0.00 | 91 | 1015.9 |
| 20260506144024 | 76 | 185 | 1.0 | 3.0 | 0.00 | 0.02 | 0.00 | 91 | 1015.8 |
| 20260506143023 | 76 | 192 | 1.0 | 3.0 | 0.00 | 0.02 | 0.00 | 91 | 1015.6 |
| 20260506142024 | 76 | 185 | 1.0 | 3.0 | 0.00 | 0.02 | 0.00 | 92 | 1015.6 |
| 20260506141024 | 75 | 186 | 1.0 | 3.0 | 0.00 | 0.02 | 0.00 | 92 | 1015.6 |
| 20260506140204 | 75 | 211 | 1.0 | 3.0 | 0.00 | 0.02 | 0.00 | 92 | 1015.5 |
| 20260506135044 | 75 | 204 | 1.0 | 2.0 | 0.00 | 0.02 | 0.00 | 92 | 1015.4 |
| 20260506134024 | 75 | 223 | 1.0 | 3.0 | 0.00 | 0.02 | 0.00 | 93 | 1015.4 |
| 20260506133025 | 75 | 202 | 1.0 | 2.0 | 0.00 | 0.02 | 0.00 | 93 | 1015.3 |
| 20260506132025 | 75 | 209 | 1.0 | 3.0 | 0.00 | 0.02 | 0.00 | 93 | 1015.2 |
| 20260506131025 | 75 | 186 | 2.0 | 3.0 | 0.00 | 0.02 | 0.00 | 93 | 1015.0 |
| 20260506130026 | 75 | 203 | 1.0 | 2.0 | 0.00 | 0.02 | 0.00 | 93 | 1015.0 |
| 20260506125025 | 74 | 187 | 2.0 | 4.0 | 0.00 | 0.02 | 0.00 | 94 | 1014.8 |
| 20260506124026 | 74 | 190 | 1.0 | 3.0 | 0.00 | 0.02 | 0.00 | 94 | 1014.7 |
| 20260506123026 | 74 | 207 | 1.0 | 3.0 | 0.00 | 0.02 | 0.00 | 94 | 1014.6 |
| 20260506122026 | 74 | 199 | 2.0 | 4.0 | 0.00 | 0.02 | 0.00 | 94 | 1014.4 |
| 20260506121026 | 74 | 203 | 1.0 | 3.0 | 0.00 | 0.02 | 0.00 | 94 | 1014.4 |
| 20260506120027 | 74 | 188 | 2.0 | 3.0 | 0.00 | 0.02 | 0.00 | 94 | 1014.1 |
| 20260506115027 | 74 | 191 | 2.0 | 4.0 | 0.00 | 0.02 | 0.00 | 94 | 1014.0 |
| 20260506114026 | 74 | 189 | 2.0 | 3.0 | 0.00 | 0.02 | 0.00 | 94 | 1013.9 |
| 20260506113027 | 74 | 197 | 2.0 | 4.0 | 0.00 | 0.02 | 0.00 | 94 | 1013.6 |
| 20260506112027 | 73 | 191 | 1.0 | 3.0 | 0.00 | 0.02 | 0.00 | 94 | 1013.5 |
| 20260506111027 | 73 | 196 | 2.0 | 3.0 | 0.00 | 0.02 | 0.00 | 94 | 1013.4 |
| 20260506110028 | 73 | 205 | 1.0 | 4.0 | 0.00 | 0.02 | 0.00 | 94 | 1013.3 |
| 20260506105028 | 73 | 194 | 2.0 | 4.0 | 0.00 | 0.02 | 0.00 | 94 | 1013.1 |
| 20260506104028 | 73 | 189 | 1.0 | 4.0 | 0.00 | 0.02 | 0.00 | 94 | 1012.9 |
| 20260506103028 | 73 | 198 | 2.0 | 4.0 | 0.00 | 0.02 | 0.00 | 94 | 1012.7 |
| 20260506102028 | 73 | 190 | 3.0 | 4.0 | 0.00 | 0.02 | 0.00 | 94 | 1012.6 |
| 20260506101029 | 73 | 190 | 2.0 | 3.0 | 0.00 | 0.02 | 0.00 | 94 | 1012.6 |
| 20260506100028 | 73 | 197 | 2.0 | 4.0 | 0.00 | 0.02 | 0.00 | 94 | 1012.5 |
| 20260506095029 | 73 | 183 | 2.0 | 4.0 | 0.00 | 0.02 | 0.00 | 94 | 1012.5 |
| 20260506094029 | 73 | 180 | 2.0 | 4.0 | 0.00 | 0.02 | 0.00 | 94 | 1012.6 |
| 20260506093029 | 73 | 197 | 2.0 | 3.0 | 0.00 | 0.02 | 0.00 | 94 | 1012.6 |
| 20260506092049 | 73 | 192 | 1.0 | 3.0 | 0.00 | 0.02 | 0.00 | 94 | 1012.7 |
| 20260506091029 | 73 | 192 | 2.0 | 4.0 | 0.00 | 0.02 | 0.00 | 94 | 1012.8 |
| 20260506090030 | 73 | 188 | 2.0 | 4.0 | 0.00 | 0.02 | 0.00 | 94 | 1012.8 |
| 20260506085029 | 73 | 196 | 2.0 | 3.0 | 0.00 | 0.02 | 0.00 | 94 | 1012.9 |
| 20260506084030 | 73 | 191 | 2.0 | 4.0 | 0.00 | 0.02 | 0.00 | 93 | 1012.9 |
| 20260506083030 | 73 | 191 | 2.0 | 4.0 | 0.00 | 0.02 | 0.00 | 93 | 1012.9 |
| 20260506082021 | 73 | 192 | 2.0 | 5.0 | 0.00 | 0.02 | 0.00 | 92 | 1013.0 |
| 20260506081030 | 73 | 189 | 3.0 | 5.0 | 0.00 | 0.02 | 0.00 | 92 | 1013.0 |
| 20260506073031 | 73 | 194 | 2.0 | 4.0 | 0.00 | 0.02 | 0.00 | 90 | 1013.2 |
| 20260506072031 | 73 | 206 | 1.0 | 3.0 | 0.00 | 0.02 | 0.00 | 90 | 1013.3 |
| 20260506071051 | 73 | 194 | 2.0 | 4.0 | 0.00 | 0.02 | 0.00 | 90 | 1013.3 |
| 20260506062037 | 73 | 185 | 2.0 | 3.0 | 0.00 | 0.02 | 0.00 | 89 | 1013.7 |
| 20260506061017 | 73 | 189 | 2.0 | 5.0 | 0.00 | 0.02 | 0.00 | 89 | 1013.8 |
| 20260506051018 | 73 | 199 | 2.0 | 3.0 | 0.00 | 0.02 | 0.00 | 88 | 1014.2 |
| 20260506045018 | 73 | 196 | 1.0 | 2.0 | 0.00 | 0.02 | 0.02 | 88 | 1014.4 |
| 20260506044038 | 73 | 217 | 1.0 | 3.0 | 0.00 | 0.02 | 0.02 | 88 | 1014.5 |
| 20260506043019 | 73 | 197 | 1.0 | 2.0 | 0.00 | 0.02 | 0.02 | 87 | 1014.5 |
| 20260506042017 | 73 | 200 | 1.0 | 3.0 | 0.00 | 0.02 | 0.02 | 88 | 1014.6 |
| 20260506041018 | 73 | 193 | 1.0 | 2.0 | 0.00 | 0.02 | 0.02 | 88 | 1014.7 |
| 20260506040039 | 73 | 199 | 1.0 | 3.0 | 0.00 | 0.02 | 0.02 | 88 | 1014.7 |
| 20260506035019 | 73 | 198 | 1.0 | 2.0 | 0.00 | 0.02 | 0.02 | 88 | 1014.8 |
| 20260506034020 | 73 | 194 | 1.0 | 3.0 | 0.00 | 0.02 | 0.02 | 89 | 1014.7 |